Location: Burland Observatory
(39.4088°N, 105.4217°W)
Time: 04:43:16
(UTC-07:00)

Vanguard 3 - Pass Details

Date: 11 December 2019
Orbit: 507 x 3263 km, 33.4° (Epoch: 24 January)

Event Time Altitude Azimuth Distance (km) Brightness Sun altitude
Rises 06:17:49 0° 212° (SSW) 3,268 10.2 -10.2°
Reaches altitude 10° 06:20:14 10° 199° (SSW) 2,597 9.8 -9.8°
Maximum altitude 06:25:27 27° 143° (SE) 2,179 10.1 -8.8°
Drops below altitude 10° 06:33:30 10° 91° (E) 4,132 12.0 -7.4°
Sets 06:38:30 0° 82° (E) 5,658 12.5 -6.5°
